Time,TemperatureF,DewpointF,PressureIn,WindDirection,WindDirectionDegrees,WindSpeedMPH,WindSpeedGustMPH,Humidity,HourlyPrecipIn,Conditions,Clouds,dailyrainin,SolarRadiationWatts/m^2,SoftwareType,DateUTC
2013-01-20 00:04:00,43.2,24.8,30.19,NW,313,0.0,2.0,48,0.00,,,0.00,0.0,meteohub,2013-01-20 07:04:00,
2013-01-20 00:09:00,43.0,24.6,30.19,NW,313,1.0,2.0,48,0.00,,,0.00,0.0,meteohub,2013-01-20 07:09:00,
2013-01-20 00:14:00,42.6,24.3,30.19,NW,313,1.0,1.0,48,0.00,,,0.00,0.0,meteohub,2013-01-20 07:14:00,
2013-01-20 00:19:00,42.4,25.2,30.19,NW,313,0.0,1.0,50,0.00,,,0.00,0.0,meteohub,2013-01-20 07:19:00,
2013-01-20 00:24:00,42.1,24.8,30.19,NW,313,1.0,1.0,50,0.00,,,0.00,0.0,meteohub,2013-01-20 07:24:00,
2013-01-20 00:29:00,41.7,25.0,30.19,NW,313,0.0,2.0,51,0.00,,,0.00,0.0,meteohub,2013-01-20 07:29:00,
2013-01-20 00:34:00,41.5,25.2,30.19,NW,313,1.0,2.0,52,0.00,,,0.00,0.0,meteohub,2013-01-20 07:34:00,
2013-01-20 00:39:00,41.2,24.8,30.19,NW,313,1.0,2.0,52,0.00,,,0.00,0.0,meteohub,2013-01-20 07:39:00,
2013-01-20 00:44:00,41.0,25.2,30.19,NW,313,0.0,2.0,53,0.00,,,0.00,0.0,meteohub,2013-01-20 07:44:00,
2013-01-20 00:49:00,40.8,25.5,30.19,NW,313,1.0,2.0,54,0.00,,,0.00,0.0,meteohub,2013-01-20 07:49:00,
2013-01-20 00:54:00,40.6,25.3,30.19,NW,313,0.0,1.0,54,0.00,,,0.00,0.0,meteohub,2013-01-20 07:54:00,
2013-01-20 00:59:00,40.5,25.2,30.19,NW,313,0.0,1.0,54,0.00,,,0.00,0.0,meteohub,2013-01-20 07:59:00,
2013-01-20 01:04:00,40.5,25.2,30.19,NW,313,1.0,1.0,54,0.00,,,0.00,0.0,meteohub,2013-01-20 08:04:00,
2013-01-20 01:09:00,40.5,25.2,30.19,NW,313,1.0,1.0,54,0.00,,,0.00,0.0,meteohub,2013-01-20 08:09:00,
2013-01-20 01:14:00,40.3,25.9,30.19,NW,313,1.0,1.0,56,0.00,,,0.00,0.0,meteohub,2013-01-20 08:14:00,
2013-01-20 01:19:00,40.3,25.3,30.19,NW,313,1.0,1.0,55,0.00,,,0.00,0.0,meteohub,2013-01-20 08:19:00,
2013-01-20 01:24:00,40.3,24.4,30.19,NW,313,1.0,2.0,53,0.00,,,0.00,0.0,meteohub,2013-01-20 08:24:00,
2013-01-20 01:29:00,40.3,25.0,30.19,NW,313,1.0,2.0,54,0.00,,,0.00,0.0,meteohub,2013-01-20 08:29:00,
2013-01-20 01:34:00,40.1,25.2,30.19,NW,313,0.0,2.0,55,0.00,,,0.00,0.0,meteohub,2013-01-20 08:34:00,
2013-01-20 01:39:00,39.9,25.5,30.18,NW,313,0.0,1.0,56,0.00,,,0.00,0.0,meteohub,2013-01-20 08:39:00,
2013-01-20 01:44:00,39.9,25.0,30.18,NW,313,1.0,1.0,55,0.00,,,0.00,0.0,meteohub,2013-01-20 08:44:00,
2013-01-20 01:49:00,39.9,25.5,30.18,NW,313,0.0,1.0,56,0.00,,,0.00,0.0,meteohub,2013-01-20 08:49:00,
2013-01-20 01:54:00,39.9,25.5,30.18,NW,313,0.0,1.0,56,0.00,,,0.00,0.0,meteohub,2013-01-20 08:54:00,
2013-01-20 01:59:00,40.1,25.2,30.18,NW,313,0.0,1.0,55,0.00,,,0.00,0.0,meteohub,2013-01-20 08:59:00,
2013-01-20 02:04:00,40.1,24.8,30.18,NW,313,0.0,1.0,54,0.00,,,0.00,0.0,meteohub,2013-01-20 09:04:00,
2013-01-20 02:09:00,40.3,25.3,30.18,NW,313,0.0,2.0,55,0.00,,,0.00,0.0,meteohub,2013-01-20 09:09:00,
2013-01-20 02:14:00,40.3,25.0,30.19,NW,313,1.0,2.0,54,0.00,,,0.00,0.0,meteohub,2013-01-20 09:14:00,
2013-01-20 02:19:00,40.3,25.0,30.18,NW,313,1.0,2.0,54,0.00,,,0.00,0.0,meteohub,2013-01-20 09:19:00,
2013-01-20 02:24:00,39.9,25.0,30.18,NW,313,1.0,2.0,55,0.00,,,0.00,0.0,meteohub,2013-01-20 09:24:00,
2013-01-20 02:29:00,39.9,25.0,30.18,NW,313,0.0,2.0,55,0.00,,,0.00,0.0,meteohub,2013-01-20 09:29:00,
2013-01-20 02:34:00,39.9,25.5,30.18,NW,313,1.0,2.0,56,0.00,,,0.00,0.0,meteohub,2013-01-20 09:34:00,
2013-01-20 02:40:00,39.9,25.0,30.18,NW,313,1.0,1.0,55,0.00,,,0.00,0.0,meteohub,2013-01-20 09:40:00,
2013-01-20 02:45:00,39.7,25.0,30.19,NW,313,1.0,2.0,55,0.00,,,0.00,0.0,meteohub,2013-01-20 09:45:00,
2013-01-20 02:50:00,39.9,25.5,30.18,NW,313,0.0,2.0,56,0.00,,,0.00,0.0,meteohub,2013-01-20 09:50:00,
2013-01-20 02:55:00,39.7,25.0,30.19,NW,313,1.0,2.0,55,0.00,,,0.00,0.0,meteohub,2013-01-20 09:55:00,
2013-01-20 03:00:00,39.6,25.5,30.18,NW,313,1.0,2.0,57,0.00,,,0.00,0.0,meteohub,2013-01-20 10:00:00,
2013-01-20 03:05:00,39.4,25.0,30.18,NW,313,0.0,2.0,56,0.00,,,0.00,0.0,meteohub,2013-01-20 10:05:00,
2013-01-20 03:10:00,39.6,25.2,30.18,NW,313,0.0,2.0,56,0.00,,,0.00,0.0,meteohub,2013-01-20 10:10:00,
2013-01-20 03:15:00,39.6,25.5,30.18,NW,313,1.0,2.0,57,0.00,,,0.00,0.0,meteohub,2013-01-20 10:15:00,
2013-01-20 03:20:00,39.6,25.2,30.18,NW,313,0.0,2.0,56,0.00,,,0.00,0.0,meteohub,2013-01-20 10:20:00,
2013-01-20 03:25:00,39.9,25.0,30.18,NW,313,0.0,2.0,55,0.00,,,0.00,0.0,meteohub,2013-01-20 10:25:00,
2013-01-20 03:30:00,40.3,25.0,30.18,NW,313,1.0,2.0,54,0.00,,,0.00,0.0,meteohub,2013-01-20 10:30:00,
2013-01-20 03:35:00,40.1,25.7,30.18,NW,313,1.0,2.0,56,0.00,,,0.00,0.0,meteohub,2013-01-20 10:35:00,
2013-01-20 03:40:00,39.9,24.6,30.18,NW,313,2.0,2.0,54,0.00,,,0.00,0.0,meteohub,2013-01-20 10:40:00,
2013-01-20 03:45:00,41.0,25.2,30.17,NW,313,1.0,2.0,53,0.00,,,0.00,0.0,meteohub,2013-01-20 10:45:00,
2013-01-20 03:50:00,41.2,25.9,30.17,NW,313,0.0,2.0,54,0.00,,,0.00,0.0,meteohub,2013-01-20 10:50:00,
2013-01-20 03:55:00,40.5,25.5,30.17,NW,313,1.0,2.0,55,0.00,,,0.00,0.0,meteohub,2013-01-20 10:55:00,
2013-01-20 04:00:00,39.9,25.0,30.17,NW,313,1.0,1.0,55,0.00,,,0.00,0.0,meteohub,2013-01-20 11:00:00,
2013-01-20 04:05:00,39.6,25.5,30.17,NW,313,0.0,2.0,57,0.00,,,0.00,0.0,meteohub,2013-01-20 11:05:00,
2013-01-20 04:10:00,39.6,25.2,30.17,NW,313,0.0,2.0,56,0.00,,,0.00,0.0,meteohub,2013-01-20 11:10:00,
2013-01-20 04:15:00,39.6,25.5,30.17,NW,313,1.0,2.0,57,0.00,,,0.00,0.0,meteohub,2013-01-20 11:15:00,
2013-01-20 04:20:00,39.6,25.5,30.17,NW,313,1.0,2.0,57,0.00,,,0.00,0.0,meteohub,2013-01-20 11:20:00,
2013-01-20 04:25:00,40.3,25.3,30.17,NW,313,1.0,2.0,55,0.00,,,0.00,0.0,meteohub,2013-01-20 11:25:00,
2013-01-20 04:30:00,40.6,25.7,30.17,NW,313,1.0,2.0,55,0.00,,,0.00,0.0,meteohub,2013-01-20 11:30:00,
2013-01-20 04:35:00,40.5,25.2,30.17,NW,313,0.0,2.0,54,0.00,,,0.00,0.0,meteohub,2013-01-20 11:35:00,
2013-01-20 04:40:00,39.9,25.0,30.17,NW,313,1.0,2.0,55,0.00,,,0.00,0.0,meteohub,2013-01-20 11:40:00,
2013-01-20 04:45:00,39.7,25.7,30.17,NW,313,0.0,2.0,57,0.00,,,0.00,0.0,meteohub,2013-01-20 11:45:00,
2013-01-20 04:50:00,39.4,25.3,30.17,NW,313,1.0,2.0,57,0.00,,,0.00,0.0,meteohub,2013-01-20 11:50:00,
2013-01-20 04:55:00,38.8,25.3,30.17,North,349,2.0,2.0,58,0.00,,,0.00,0.0,meteohub,2013-01-20 11:55:00,
2013-01-20 05:00:00,38.7,25.2,30.17,NNE,29,0.0,2.0,58,0.00,,,0.00,0.0,meteohub,2013-01-20 12:00:00,
2013-01-20 05:05:00,38.3,24.8,30.17,East,91,0.0,2.0,58,0.00,,,0.00,0.0,meteohub,2013-01-20 12:05:00,
2013-01-20 05:10:00,38.1,25.0,30.17,East,86,0.0,2.0,59,0.00,,,0.00,0.0,meteohub,2013-01-20 12:10:00,
2013-01-20 05:15:00,37.8,25.2,30.17,East,86,1.0,2.0,60,0.00,,,0.00,0.0,meteohub,2013-01-20 12:15:00,
2013-01-20 05:21:00,37.6,25.3,30.17,East,86,0.0,2.0,61,0.00,,,0.00,0.0,meteohub,2013-01-20 12:21:00,
2013-01-20 05:26:00,37.8,25.2,30.17,East,86,0.0,1.0,60,0.00,,,0.00,0.0,meteohub,2013-01-20 12:26:00,
2013-01-20 05:31:00,37.6,25.0,30.17,East,86,0.0,1.0,60,0.00,,,0.00,0.0,meteohub,2013-01-20 12:31:00,
2013-01-20 05:36:00,37.6,25.3,30.17,East,86,0.0,1.0,61,0.00,,,0.00,0.0,meteohub,2013-01-20 12:36:00,
2013-01-20 05:41:00,37.2,25.3,30.17,East,86,0.0,2.0,62,0.00,,,0.00,0.0,meteohub,2013-01-20 12:41:00,
2013-01-20 05:46:00,36.9,25.5,30.17,East,86,1.0,2.0,63,0.00,,,0.00,0.0,meteohub,2013-01-20 12:46:00,
2013-01-20 05:51:00,36.7,25.3,30.17,East,86,0.0,2.0,63,0.00,,,0.00,0.0,meteohub,2013-01-20 12:51:00,
2013-01-20 05:56:00,36.3,24.6,30.17,East,86,0.0,2.0,62,0.00,,,0.00,0.0,meteohub,2013-01-20 12:56:00,
2013-01-20 06:01:00,36.3,25.3,30.17,East,86,0.0,2.0,64,0.00,,,0.00,0.0,meteohub,2013-01-20 13:01:00,
2013-01-20 06:06:00,36.3,24.6,30.17,East,86,0.0,2.0,62,0.00,,,0.00,0.0,meteohub,2013-01-20 13:06:00,
2013-01-20 06:11:00,36.5,24.8,30.17,East,86,0.0,2.0,62,0.00,,,0.00,0.0,meteohub,2013-01-20 13:11:00,
2013-01-20 06:16:00,36.7,25.3,30.17,East,86,1.0,2.0,63,0.00,,,0.00,0.0,meteohub,2013-01-20 13:16:00,
2013-01-20 06:22:00,36.7,25.0,30.17,East,86,0.0,1.0,62,0.00,,,0.00,0.0,meteohub,2013-01-20 13:22:00,
2013-01-20 06:27:00,36.7,25.0,30.17,East,87,1.0,2.0,62,0.00,,,0.00,0.0,meteohub,2013-01-20 13:27:00,
2013-01-20 06:32:00,36.7,25.3,30.17,East,86,1.0,2.0,63,0.00,,,0.00,0.0,meteohub,2013-01-20 13:32:00,
2013-01-20 06:36:00,36.3,25.0,30.17,SE,136,0.0,2.0,63,0.00,,,0.00,0.0,meteohub,2013-01-20 13:36:00,
2013-01-20 06:41:00,36.1,24.8,30.17,SE,136,1.0,3.0,63,0.00,,,0.00,0.0,meteohub,2013-01-20 13:41:00,
2013-01-20 06:46:00,36.1,25.2,30.17,SE,136,1.0,3.0,64,0.00,,,0.00,0.0,meteohub,2013-01-20 13:46:00,
2013-01-20 06:51:00,36.1,25.5,30.17,SE,135,0.0,2.0,65,0.00,,,0.00,0.0,meteohub,2013-01-20 13:51:00,
2013-01-20 06:57:00,36.3,25.7,30.17,East,93,0.0,2.0,65,0.00,,,0.00,0.0,meteohub,2013-01-20 13:57:00,
2013-01-20 07:02:00,36.3,25.3,30.17,East,93,0.0,2.0,64,0.00,,,0.00,0.0,meteohub,2013-01-20 14:02:00,
2013-01-20 07:07:00,36.7,25.3,30.17,East,94,1.0,2.0,63,0.00,,,0.00,0.0,meteohub,2013-01-20 14:07:00,
2013-01-20 07:12:00,36.7,25.7,30.17,East,94,1.0,2.0,64,0.00,,,0.00,0.0,meteohub,2013-01-20 14:12:00,
2013-01-20 07:17:00,36.7,25.7,30.17,East,93,0.0,2.0,64,0.00,,,0.00,0.0,meteohub,2013-01-20 14:17:00,
2013-01-20 07:22:00,36.7,25.3,30.17,East,93,1.0,2.0,63,0.00,,,0.00,5.0,meteohub,2013-01-20 14:22:00,
2013-01-20 07:27:00,36.7,25.7,30.16,East,93,0.0,2.0,64,0.00,,,0.00,7.0,meteohub,2013-01-20 14:27:00,
2013-01-20 07:32:00,36.5,25.9,30.17,East,93,0.0,2.0,65,0.00,,,0.00,11.0,meteohub,2013-01-20 14:32:00,
2013-01-20 07:37:00,36.5,25.9,30.17,East,93,0.0,1.0,65,0.00,,,0.00,12.0,meteohub,2013-01-20 14:37:00,
2013-01-20 07:42:00,36.9,25.9,30.17,East,93,0.0,1.0,64,0.00,,,0.00,14.0,meteohub,2013-01-20 14:42:00,
2013-01-20 07:47:00,37.0,26.1,30.17,East,93,0.0,1.0,64,0.00,,,0.00,18.0,meteohub,2013-01-20 14:47:00,
2013-01-20 07:52:00,37.0,26.4,30.17,East,93,0.0,1.0,65,0.00,,,0.00,19.0,meteohub,2013-01-20 14:52:00,
2013-01-20 07:57:00,37.0,26.8,30.17,East,93,0.0,2.0,66,0.00,,,0.00,21.0,meteohub,2013-01-20 14:57:00,
2013-01-20 08:02:00,37.0,26.1,30.17,East,93,0.0,2.0,64,0.00,,,0.00,25.0,meteohub,2013-01-20 15:02:00,
2013-01-20 08:07:00,37.8,27.5,30.17,East,93,1.0,2.0,66,0.00,,,0.00,49.0,meteohub,2013-01-20 15:07:00,
2013-01-20 08:12:00,38.8,28.0,30.17,East,93,1.0,2.0,65,0.00,,,0.00,88.0,meteohub,2013-01-20 15:12:00,
2013-01-20 08:17:00,40.3,27.9,30.17,East,93,0.0,2.0,61,0.00,,,0.00,107.0,meteohub,2013-01-20 15:17:00,
2013-01-20 08:22:00,42.3,28.6,30.17,East,93,1.0,2.0,58,0.00,,,0.00,123.0,meteohub,2013-01-20 15:22:00,
2013-01-20 08:27:00,43.9,27.3,30.17,East,93,0.0,2.0,52,0.00,,,0.00,144.0,meteohub,2013-01-20 15:27:00,
2013-01-20 08:32:00,45.9,26.2,30.17,East,93,0.0,2.0,46,0.00,,,0.00,165.0,meteohub,2013-01-20 15:32:00,
2013-01-20 08:37:00,47.8,27.0,30.17,North,355,1.0,2.0,44,0.00,,,0.00,186.0,meteohub,2013-01-20 15:37:00,
2013-01-20 08:42:00,49.6,27.0,30.17,North,355,0.0,3.0,41,0.00,,,0.00,207.0,meteohub,2013-01-20 15:42:00,
2013-01-20 08:47:00,51.1,27.0,30.17,North,355,1.0,3.0,39,0.00,,,0.00,229.0,meteohub,2013-01-20 15:47:00,
2013-01-20 08:52:00,52.3,25.5,30.17,North,355,0.0,2.0,35,0.00,,,0.00,246.0,meteohub,2013-01-20 15:52:00,
2013-01-20 08:57:00,53.4,25.0,30.17,NNW,333,2.0,3.0,33,0.00,,,0.00,258.0,meteohub,2013-01-20 15:57:00,
2013-01-20 09:02:00,54.3,25.2,30.17,West,261,2.0,3.0,32,0.00,,,0.00,276.0,meteohub,2013-01-20 16:02:00,
2013-01-20 09:07:00,55.0,25.0,30.18,West,261,3.0,4.0,31,0.00,,,0.00,292.0,meteohub,2013-01-20 16:07:00,
2013-01-20 09:12:00,55.8,24.8,30.18,West,260,2.0,4.0,30,0.00,,,0.00,308.0,meteohub,2013-01-20 16:12:00,
2013-01-20 09:17:00,56.3,24.4,30.18,WSW,241,2.0,4.0,29,0.00,,,0.00,323.0,meteohub,2013-01-20 16:17:00,
2013-01-20 09:22:00,56.8,25.0,30.18,West,260,1.0,4.0,29,0.00,,,0.00,341.0,meteohub,2013-01-20 16:22:00,
2013-01-20 09:27:00,57.2,26.1,30.18,WSW,248,2.0,4.0,30,0.00,,,0.00,352.0,meteohub,2013-01-20 16:27:00,
2013-01-20 09:32:00,57.4,26.2,30.18,WSW,244,2.0,4.0,30,0.00,,,0.00,366.0,meteohub,2013-01-20 16:32:00,
2013-01-20 09:37:00,57.7,26.4,30.18,West,263,3.0,4.0,30,0.00,,,0.00,381.0,meteohub,2013-01-20 16:37:00,
2013-01-20 09:42:00,58.3,27.0,30.18,WSW,251,3.0,4.0,30,0.00,,,0.00,396.0,meteohub,2013-01-20 16:42:00,
2013-01-20 09:47:00,58.5,25.5,30.18,SW,227,3.0,4.0,28,0.00,,,0.00,410.0,meteohub,2013-01-20 16:47:00,
2013-01-20 09:52:00,58.8,25.7,30.18,West,267,4.0,4.0,28,0.00,,,0.00,424.0,meteohub,2013-01-20 16:52:00,
2013-01-20 09:57:00,59.2,26.1,30.18,West,263,4.0,6.0,28,0.00,,,0.00,439.0,meteohub,2013-01-20 16:57:00,
2013-01-20 10:02:00,59.5,25.5,30.18,West,265,3.0,6.0,27,0.00,,,0.00,450.0,meteohub,2013-01-20 17:02:00,
2013-01-20 10:07:00,60.1,26.1,30.18,West,268,2.0,6.0,27,0.00,,,0.00,462.0,meteohub,2013-01-20 17:07:00,
2013-01-20 10:12:00,60.8,25.7,30.18,WSW,256,1.0,6.0,26,0.00,,,0.00,476.0,meteohub,2013-01-20 17:12:00,
2013-01-20 10:17:00,61.3,26.2,30.18,West,262,2.0,6.0,26,0.00,,,0.00,489.0,meteohub,2013-01-20 17:17:00,
2013-01-20 10:22:00,62.2,26.1,30.18,SW,222,1.0,4.0,25,0.00,,,0.00,501.0,meteohub,2013-01-20 17:22:00,
2013-01-20 10:27:00,62.8,25.5,30.18,SW,229,3.0,4.0,24,0.00,,,0.00,512.0,meteohub,2013-01-20 17:27:00,
2013-01-20 10:32:00,63.1,25.7,30.18,WSW,250,1.0,4.0,24,0.00,,,0.00,524.0,meteohub,2013-01-20 17:32:00,
2013-01-20 10:37:00,63.9,26.4,30.18,West,259,2.0,4.0,24,0.00,,,0.00,534.0,meteohub,2013-01-20 17:37:00,
2013-01-20 10:42:00,64.6,25.9,30.18,WSW,251,3.0,4.0,23,0.00,,,0.00,545.0,meteohub,2013-01-20 17:42:00,
2013-01-20 10:47:00,64.9,25.2,30.18,West,262,3.0,4.0,22,0.00,,,0.00,554.0,meteohub,2013-01-20 17:47:00,
2013-01-20 10:52:00,65.5,25.7,30.18,WSW,242,0.0,4.0,22,0.00,,,0.00,566.0,meteohub,2013-01-20 17:52:00,
2013-01-20 10:57:00,66.0,26.1,30.17,SW,226,3.0,4.0,22,0.00,,,0.00,575.0,meteohub,2013-01-20 17:57:00,
2013-01-20 11:02:00,66.4,25.3,30.17,WSW,240,2.0,5.0,21,0.00,,,0.00,584.0,meteohub,2013-01-20 18:02:00,
2013-01-20 11:07:00,66.9,25.7,30.17,West,267,2.0,5.0,21,0.00,,,0.00,592.0,meteohub,2013-01-20 18:07:00,
2013-01-20 11:12:00,67.5,25.0,30.17,West,259,4.0,5.0,20,0.00,,,0.00,598.0,meteohub,2013-01-20 18:12:00,
2013-01-20 11:16:00,67.6,25.2,30.17,WSW,254,1.0,5.0,20,0.00,,,0.00,606.0,meteohub,2013-01-20 18:16:00,
2013-01-20 11:22:00,68.2,25.5,30.17,WSW,254,0.0,5.0,20,0.00,,,0.00,613.0,meteohub,2013-01-20 18:22:00,
2013-01-20 11:27:00,68.9,26.2,30.16,West,277,2.0,5.0,20,0.00,,,0.00,621.0,meteohub,2013-01-20 18:27:00,
2013-01-20 11:32:00,69.4,25.3,30.16,West,276,3.0,3.0,19,0.00,,,0.00,628.0,meteohub,2013-01-20 18:32:00,
2013-01-20 11:37:00,69.6,25.5,30.16,West,263,0.0,4.0,19,0.00,,,0.00,633.0,meteohub,2013-01-20 18:37:00,
2013-01-20 11:42:00,70.0,25.9,30.15,SSW,208,2.0,4.0,19,0.00,,,0.00,638.0,meteohub,2013-01-20 18:42:00,
2013-01-20 11:47:00,70.3,24.8,30.15,SE,138,2.0,5.0,18,0.00,,,0.00,643.0,meteohub,2013-01-20 18:47:00,
2013-01-20 11:52:00,70.9,25.3,30.15,SSW,193,1.0,5.0,18,0.00,,,0.00,649.0,meteohub,2013-01-20 18:52:00,
2013-01-20 11:57:00,71.4,27.0,30.14,SSW,201,3.0,5.0,19,0.00,,,0.00,650.0,meteohub,2013-01-20 18:57:00,
2013-01-20 12:02:00,71.6,25.9,30.14,SSW,210,1.0,4.0,18,0.00,,,0.00,656.0,meteohub,2013-01-20 19:02:00,
2013-01-20 12:07:00,72.1,26.2,30.14,South,182,2.0,3.0,18,0.00,,,0.00,659.0,meteohub,2013-01-20 19:07:00,
2013-01-20 12:12:00,72.7,25.3,30.13,SSE,151,1.0,3.0,17,0.00,,,0.00,661.0,meteohub,2013-01-20 19:12:00,
2013-01-20 12:17:00,72.9,27.0,30.13,ENE,67,1.0,3.0,18,0.00,,,0.00,663.0,meteohub,2013-01-20 19:17:00,
2013-01-20 12:22:00,73.0,25.7,30.12,SW,215,1.0,3.0,17,0.00,,,0.00,664.0,meteohub,2013-01-20 19:22:00,
2013-01-20 12:27:00,73.2,25.7,30.12,SW,222,1.0,4.0,17,0.00,,,0.00,664.0,meteohub,2013-01-20 19:27:00,
2013-01-20 12:32:00,73.8,27.7,30.12,SW,225,1.0,4.0,18,0.00,,,0.00,666.0,meteohub,2013-01-20 19:32:00,
2013-01-20 12:37:00,74.1,27.9,30.11,North,5,1.0,4.0,18,0.00,,,0.00,666.0,meteohub,2013-01-20 19:37:00,
2013-01-20 12:42:00,74.7,27.0,30.11,SE,130,1.0,4.0,17,0.00,,,0.00,666.0,meteohub,2013-01-20 19:42:00,
2013-01-20 12:47:00,74.8,27.1,30.11,NW,323,2.0,4.0,17,0.00,,,0.00,668.0,meteohub,2013-01-20 19:47:00,
2013-01-20 12:52:00,74.8,28.4,30.10,NE,46,1.0,6.0,18,0.00,,,0.00,666.0,meteohub,2013-01-20 19:52:00,
2013-01-20 12:57:00,75.4,28.9,30.09,NNW,331,2.0,6.0,18,0.00,,,0.00,664.0,meteohub,2013-01-20 19:57:00,
2013-01-20 13:02:00,75.4,28.9,30.09,WNW,287,1.0,6.0,18,0.00,,,0.00,663.0,meteohub,2013-01-20 20:02:00,
2013-01-20 13:07:00,75.6,29.1,30.09,SW,216,3.0,4.0,18,0.00,,,0.00,659.0,meteohub,2013-01-20 20:07:00,
2013-01-20 13:12:00,75.6,29.1,30.09,SW,229,2.0,5.0,18,0.00,,,0.00,661.0,meteohub,2013-01-20 20:12:00,
2013-01-20 13:17:00,75.6,29.1,30.08,West,260,3.0,5.0,18,0.00,,,0.00,656.0,meteohub,2013-01-20 20:17:00,
2013-01-20 13:22:00,75.4,28.9,30.08,WNW,288,2.0,6.0,18,0.00,,,0.00,652.0,meteohub,2013-01-20 20:22:00,
2013-01-20 13:27:00,75.6,29.1,30.08,NW,313,0.0,6.0,18,0.00,,,0.00,649.0,meteohub,2013-01-20 20:27:00,
2013-01-20 13:32:00,76.3,29.7,30.07,South,178,1.0,5.0,18,0.00,,,0.00,647.0,meteohub,2013-01-20 20:32:00,
2013-01-20 13:37:00,76.8,30.0,30.07,SSW,209,3.0,4.0,18,0.00,,,0.00,640.0,meteohub,2013-01-20 20:37:00,
2013-01-20 13:42:00,76.8,30.0,30.07,NNW,327,1.0,5.0,18,0.00,,,0.00,635.0,meteohub,2013-01-20 20:42:00,
2013-01-20 13:47:00,77.0,30.2,30.07,WSW,239,2.0,5.0,18,0.00,,,0.00,633.0,meteohub,2013-01-20 20:47:00,
2013-01-20 13:52:00,77.2,31.8,30.06,WSW,248,2.0,5.0,19,0.00,,,0.00,629.0,meteohub,2013-01-20 20:52:00,
2013-01-20 13:57:00,77.2,30.4,30.06,SW,223,0.0,5.0,18,0.00,,,0.00,628.0,meteohub,2013-01-20 20:57:00,
2013-01-20 14:02:00,77.4,31.8,30.06,SW,227,4.0,5.0,19,0.00,,,0.00,612.0,meteohub,2013-01-20 21:02:00,
2013-01-20 14:07:00,77.0,32.9,30.06,NNW,332,1.0,5.0,20,0.00,,,0.00,513.0,meteohub,2013-01-20 21:07:00,
2013-01-20 14:12:00,76.6,33.8,30.06,North,5,2.0,5.0,21,0.00,,,0.00,459.0,meteohub,2013-01-20 21:12:00,
2013-01-20 14:17:00,76.8,34.0,30.06,WSW,256,1.0,5.0,21,0.00,,,0.00,508.0,meteohub,2013-01-20 21:17:00,
2013-01-20 14:22:00,76.6,34.9,30.06,NNW,342,0.0,5.0,22,0.00,,,0.00,348.0,meteohub,2013-01-20 21:22:00,
2013-01-20 14:27:00,76.5,34.9,30.06,SW,217,3.0,5.0,22,0.00,,,0.00,452.0,meteohub,2013-01-20 21:27:00,
2013-01-20 14:32:00,76.3,34.7,30.06,SW,221,2.0,7.0,22,0.00,,,0.00,267.0,meteohub,2013-01-20 21:32:00,
2013-01-20 14:37:00,75.9,35.4,30.06,WSW,257,2.0,7.0,23,0.00,,,0.00,385.0,meteohub,2013-01-20 21:37:00,
2013-01-20 14:42:00,76.5,37.0,30.06,West,259,5.0,7.0,24,0.00,,,0.00,584.0,meteohub,2013-01-20 21:42:00,
2013-01-20 14:47:00,76.5,37.9,30.06,West,273,6.0,7.0,25,0.00,,,0.00,561.0,meteohub,2013-01-20 21:47:00,
2013-01-20 14:52:00,76.6,37.2,30.05,West,266,3.0,7.0,24,0.00,,,0.00,547.0,meteohub,2013-01-20 21:52:00,
2013-01-20 14:57:00,76.5,37.0,30.05,WNW,302,2.0,7.0,24,0.00,,,0.00,533.0,meteohub,2013-01-20 21:57:00,
2013-01-20 15:02:00,76.6,37.2,30.05,WSW,256,3.0,8.0,24,0.00,,,0.00,517.0,meteohub,2013-01-20 22:02:00,
2013-01-20 15:07:00,77.0,37.4,30.05,WSW,254,0.0,8.0,24,0.00,,,0.00,504.0,meteohub,2013-01-20 22:07:00,
2013-01-20 15:12:00,77.5,35.8,30.04,WSW,257,3.0,8.0,22,0.00,,,0.00,492.0,meteohub,2013-01-20 22:12:00,
2013-01-20 15:17:00,77.7,35.8,30.04,WSW,251,3.0,5.0,22,0.00,,,0.00,483.0,meteohub,2013-01-20 22:17:00,
2013-01-20 15:22:00,77.5,35.8,30.04,WSW,248,1.0,6.0,22,0.00,,,0.00,469.0,meteohub,2013-01-20 22:22:00,
2013-01-20 15:28:00,77.5,34.5,30.04,West,266,3.0,6.0,21,0.00,,,0.00,436.0,meteohub,2013-01-20 22:28:00,
2013-01-20 15:33:00,77.2,33.1,30.04,WSW,254,2.0,6.0,20,0.00,,,0.00,381.0,meteohub,2013-01-20 22:33:00,
2013-01-20 15:38:00,76.8,30.0,30.04,SW,236,3.0,6.0,18,0.00,,,0.00,316.0,meteohub,2013-01-20 22:38:00,
2013-01-20 15:43:00,76.8,28.8,30.04,WNW,286,1.0,6.0,17,0.00,,,0.00,318.0,meteohub,2013-01-20 22:43:00,
2013-01-20 15:48:00,77.2,28.9,30.04,WNW,286,0.0,6.0,17,0.00,,,0.00,229.0,meteohub,2013-01-20 22:48:00,
2013-01-20 15:53:00,77.4,31.8,30.04,West,273,1.0,4.0,19,0.00,,,0.00,218.0,meteohub,2013-01-20 22:53:00,
2013-01-20 15:58:00,77.2,31.8,30.04,SW,215,2.0,3.0,19,0.00,,,0.00,248.0,meteohub,2013-01-20 22:58:00,
2013-01-20 16:03:00,77.0,30.2,30.04,SW,215,0.0,5.0,18,0.00,,,0.00,193.0,meteohub,2013-01-20 23:03:00,
2013-01-20 16:08:00,76.5,29.8,30.04,WNW,296,5.0,5.0,18,0.00,,,0.00,79.0,meteohub,2013-01-20 23:08:00,
2013-01-20 16:13:00,75.6,30.4,30.04,SW,234,2.0,6.0,19,0.00,,,0.00,63.0,meteohub,2013-01-20 23:13:00,
2013-01-20 16:18:00,74.8,31.1,30.04,West,259,1.0,6.0,20,0.00,,,0.00,74.0,meteohub,2013-01-20 23:18:00,
2013-01-20 16:23:00,73.9,30.4,30.03,WSW,254,1.0,6.0,20,0.00,,,0.00,81.0,meteohub,2013-01-20 23:23:00,
2013-01-20 16:28:00,73.4,31.1,30.04,WSW,258,3.0,5.0,21,0.00,,,0.00,58.0,meteohub,2013-01-20 23:28:00,
2013-01-20 16:33:00,72.9,30.6,30.04,WSW,256,2.0,5.0,21,0.00,,,0.00,63.0,meteohub,2013-01-20 23:33:00,
2013-01-20 16:38:00,72.3,31.3,30.04,West,271,3.0,5.0,22,0.00,,,0.00,62.0,meteohub,2013-01-20 23:38:00,
2013-01-20 16:43:00,72.0,32.2,30.04,WNW,284,2.0,5.0,23,0.00,,,0.00,74.0,meteohub,2013-01-20 23:43:00,
2013-01-20 16:48:00,71.8,32.0,30.04,West,261,1.0,4.0,23,0.00,,,0.00,70.0,meteohub,2013-01-20 23:48:00,
2013-01-20 16:53:00,71.4,32.7,30.04,West,267,2.0,4.0,24,0.00,,,0.00,91.0,meteohub,2013-01-20 23:53:00,
2013-01-20 16:58:00,71.2,32.5,30.04,West,266,1.0,5.0,24,0.00,,,0.00,58.0,meteohub,2013-01-20 23:58:00,
2013-01-20 17:03:00,70.7,31.1,30.04,West,259,2.0,5.0,23,0.00,,,0.00,53.0,meteohub,2013-01-21 00:03:00,
2013-01-20 17:08:00,70.3,30.7,30.04,West,267,2.0,5.0,23,0.00,,,0.00,51.0,meteohub,2013-01-21 00:08:00,
2013-01-20 17:13:00,70.0,30.6,30.04,West,267,2.0,4.0,23,0.00,,,0.00,47.0,meteohub,2013-01-21 00:13:00,
2013-01-20 17:18:00,69.4,30.0,30.04,West,267,1.0,4.0,23,0.00,,,0.00,42.0,meteohub,2013-01-21 00:18:00,
2013-01-20 17:23:00,69.1,29.7,30.04,West,267,1.0,3.0,23,0.00,,,0.00,35.0,meteohub,2013-01-21 00:23:00,
2013-01-20 17:28:00,68.5,29.3,30.04,West,267,1.0,3.0,23,0.00,,,0.00,26.0,meteohub,2013-01-21 00:28:00,
2013-01-20 17:33:00,68.2,28.9,30.04,West,267,1.0,3.0,23,0.00,,,0.00,19.0,meteohub,2013-01-21 00:33:00,
2013-01-20 17:38:00,67.6,28.6,30.04,West,267,0.0,2.0,23,0.00,,,0.00,14.0,meteohub,2013-01-21 00:38:00,
2013-01-20 17:43:00,67.1,29.1,30.05,West,267,0.0,2.0,24,0.00,,,0.00,9.0,meteohub,2013-01-21 00:43:00,
2013-01-20 17:48:00,66.6,28.6,30.05,West,267,1.0,2.0,24,0.00,,,0.00,0.0,meteohub,2013-01-21 00:48:00,
2013-01-20 17:53:00,65.7,29.8,30.05,ENE,68,1.0,2.0,26,0.00,,,0.00,5.0,meteohub,2013-01-21 00:53:00,
2013-01-20 17:58:00,65.1,27.5,30.05,NNE,33,1.0,3.0,24,0.00,,,0.00,0.0,meteohub,2013-01-21 00:58:00,
2013-01-20 18:03:00,64.9,29.3,30.05,NNW,342,0.0,3.0,26,0.00,,,0.00,0.0,meteohub,2013-01-21 01:03:00,
2013-01-20 18:08:00,64.8,29.1,30.05,NNW,342,1.0,3.0,26,0.00,,,0.00,0.0,meteohub,2013-01-21 01:08:00,
2013-01-20 18:13:00,64.2,29.5,30.06,NNW,342,0.0,3.0,27,0.00,,,0.00,0.0,meteohub,2013-01-21 01:13:00,
2013-01-20 18:18:00,63.5,29.8,30.06,NNW,342,1.0,2.0,28,0.00,,,0.00,0.0,meteohub,2013-01-21 01:18:00,
2013-01-20 18:23:00,62.4,29.7,30.06,NNW,342,1.0,1.0,29,0.00,,,0.00,0.0,meteohub,2013-01-21 01:23:00,
2013-01-20 18:28:00,61.5,28.9,30.06,NNW,342,1.0,2.0,29,0.00,,,0.00,0.0,meteohub,2013-01-21 01:28:00,
2013-01-20 18:33:00,60.6,29.8,30.06,NNW,342,0.0,2.0,31,0.00,,,0.00,0.0,meteohub,2013-01-21 01:33:00,
2013-01-20 18:39:00,60.3,29.5,30.06,NNW,346,1.0,2.0,31,0.00,,,0.00,0.0,meteohub,2013-01-21 01:39:00,
2013-01-20 18:44:00,59.7,28.9,30.06,North,350,1.0,2.0,31,0.00,,,0.00,0.0,meteohub,2013-01-21 01:44:00,
2013-01-20 18:49:00,59.4,28.8,30.06,North,350,1.0,2.0,31,0.00,,,0.00,0.0,meteohub,2013-01-21 01:49:00,
2013-01-20 18:54:00,58.8,28.2,30.06,North,350,0.0,2.0,31,0.00,,,0.00,0.0,meteohub,2013-01-21 01:54:00,
2013-01-20 18:59:00,58.6,28.0,30.06,North,350,0.0,2.0,31,0.00,,,0.00,0.0,meteohub,2013-01-21 01:59:00,
2013-01-20 19:04:00,58.3,27.9,30.06,North,350,0.0,1.0,31,0.00,,,0.00,0.0,meteohub,2013-01-21 02:04:00,
2013-01-20 19:09:00,57.9,28.9,30.06,North,350,0.0,1.0,33,0.00,,,0.00,0.0,meteohub,2013-01-21 02:09:00,
2013-01-20 19:14:00,57.6,28.6,30.06,North,350,0.0,1.0,33,0.00,,,0.00,0.0,meteohub,2013-01-21 02:14:00,
2013-01-20 19:19:00,56.8,28.8,30.07,North,350,0.0,1.0,34,0.00,,,0.00,0.0,meteohub,2013-01-21 02:19:00,
2013-01-20 19:24:00,56.5,29.1,30.07,NNE,26,1.0,1.0,35,0.00,,,0.00,0.0,meteohub,2013-01-21 02:24:00,
2013-01-20 19:29:00,56.3,27.5,30.07,NE,53,1.0,2.0,33,0.00,,,0.00,0.0,meteohub,2013-01-21 02:29:00,
2013-01-20 19:34:00,56.5,27.7,30.07,NE,53,1.0,2.0,33,0.00,,,0.00,0.0,meteohub,2013-01-21 02:34:00,
2013-01-20 19:39:00,56.7,27.9,30.07,NE,53,0.0,2.0,33,0.00,,,0.00,0.0,meteohub,2013-01-21 02:39:00,
2013-01-20 19:44:00,56.7,27.9,30.07,East,80,0.0,2.0,33,0.00,,,0.00,0.0,meteohub,2013-01-21 02:44:00,
2013-01-20 19:49:00,56.8,28.0,30.08,East,82,1.0,3.0,33,0.00,,,0.00,0.0,meteohub,2013-01-21 02:49:00,
2013-01-20 19:54:00,56.8,28.0,30.08,East,82,1.0,3.0,33,0.00,,,0.00,0.0,meteohub,2013-01-21 02:54:00,
2013-01-20 19:59:00,56.5,29.1,30.08,East,82,0.0,3.0,35,0.00,,,0.00,0.0,meteohub,2013-01-21 02:59:00,
2013-01-20 20:04:00,55.8,28.6,30.08,East,82,1.0,2.0,35,0.00,,,0.00,0.0,meteohub,2013-01-21 03:04:00,
2013-01-20 20:09:00,55.2,28.8,30.08,East,82,0.0,2.0,36,0.00,,,0.00,0.0,meteohub,2013-01-21 03:09:00,
2013-01-20 20:14:00,54.9,29.1,30.08,East,82,0.0,2.0,37,0.00,,,0.00,0.0,meteohub,2013-01-21 03:14:00,
2013-01-20 20:19:00,54.7,30.2,30.09,East,79,1.0,2.0,39,0.00,,,0.00,0.0,meteohub,2013-01-21 03:19:00,
2013-01-20 20:24:00,54.3,29.3,30.09,East,79,2.0,2.0,38,0.00,,,0.00,0.0,meteohub,2013-01-21 03:24:00,
2013-01-20 20:29:00,54.3,29.3,30.09,East,79,1.0,2.0,38,0.00,,,0.00,0.0,meteohub,2013-01-21 03:29:00,
2013-01-20 20:34:00,54.3,29.3,30.09,East,79,0.0,2.0,38,0.00,,,0.00,0.0,meteohub,2013-01-21 03:34:00,
2013-01-20 20:39:00,54.1,29.1,30.09,East,79,0.0,2.0,38,0.00,,,0.00,0.0,meteohub,2013-01-21 03:39:00,
2013-01-20 20:44:00,54.0,28.9,30.09,East,79,0.0,2.0,38,0.00,,,0.00,0.0,meteohub,2013-01-21 03:44:00,
2013-01-20 20:49:00,53.6,29.8,30.10,East,79,0.0,1.0,40,0.00,,,0.00,0.0,meteohub,2013-01-21 03:49:00,
2013-01-20 20:54:00,53.1,30.0,30.10,East,79,0.0,1.0,41,0.00,,,0.00,0.0,meteohub,2013-01-21 03:54:00,
2013-01-20 20:59:00,52.3,30.6,30.10,East,79,0.0,1.0,43,0.00,,,0.00,0.0,meteohub,2013-01-21 03:59:00,
2013-01-20 21:04:00,51.4,29.7,30.10,East,79,1.0,1.0,43,0.00,,,0.00,0.0,meteohub,2013-01-21 04:04:00,
2013-01-20 21:09:00,51.1,29.8,30.10,East,79,0.0,1.0,44,0.00,,,0.00,0.0,meteohub,2013-01-21 04:09:00,
2013-01-20 21:14:00,50.7,29.7,30.10,East,79,1.0,1.0,44,0.00,,,0.00,0.0,meteohub,2013-01-21 04:14:00,
2013-01-20 21:19:00,50.4,29.8,30.10,East,79,0.0,1.0,45,0.00,,,0.00,0.0,meteohub,2013-01-21 04:19:00,
2013-01-20 21:24:00,50.0,29.5,30.10,East,79,0.0,1.0,45,0.00,,,0.00,0.0,meteohub,2013-01-21 04:24:00,
2013-01-20 21:29:00,49.8,29.3,30.10,East,79,0.0,1.0,45,0.00,,,0.00,0.0,meteohub,2013-01-21 04:29:00,
2013-01-20 21:34:00,49.6,28.6,30.10,East,79,0.0,1.0,44,0.00,,,0.00,0.0,meteohub,2013-01-21 04:34:00,
2013-01-20 21:39:00,49.3,29.3,30.11,East,79,0.0,1.0,46,0.00,,,0.00,0.0,meteohub,2013-01-21 04:39:00,
2013-01-20 21:44:00,48.9,29.1,30.11,East,79,0.0,1.0,46,0.00,,,0.00,0.0,meteohub,2013-01-21 04:44:00,
2013-01-20 21:49:00,48.6,29.3,30.11,East,79,0.0,1.0,47,0.00,,,0.00,0.0,meteohub,2013-01-21 04:49:00,
2013-01-20 21:54:00,48.2,30.0,30.10,East,79,1.0,1.0,49,0.00,,,0.00,0.0,meteohub,2013-01-21 04:54:00,
2013-01-20 21:59:00,47.8,29.1,30.11,East,79,1.0,1.0,48,0.00,,,0.00,0.0,meteohub,2013-01-21 04:59:00,
2013-01-20 22:00:00,47.8,29.1,30.11,East,79,1.0,1.0,48,0.00,,,0.00,0.0,meteohub,2013-01-21 05:00:00,
2013-01-20 22:02:00,47.8,29.7,30.11,East,79,0.0,2.0,49,0.00,,,0.00,0.0,meteohub,2013-01-21 05:02:00,
2013-01-20 22:12:00,47.3,29.7,30.11,East,79,0.0,2.0,50,0.00,,,0.00,0.0,meteohub,2013-01-21 05:12:00,
2013-01-20 22:15:00,47.1,29.8,30.11,East,79,1.0,1.0,51,0.00,,,0.00,0.0,meteohub,2013-01-21 05:15:00,
2013-01-20 22:16:00,47.1,29.5,30.11,East,79,1.0,1.0,50,0.00,,,0.00,0.0,meteohub,2013-01-21 05:16:00,
2013-01-20 22:21:00,46.9,29.8,30.11,East,79,0.0,1.0,51,0.00,,,0.00,0.0,meteohub,2013-01-21 05:21:00,
2013-01-20 22:27:00,46.9,29.8,30.11,East,79,0.0,1.0,51,0.00,,,0.00,0.0,meteohub,2013-01-21 05:27:00,
2013-01-20 22:32:00,46.8,30.0,30.11,East,79,1.0,1.0,52,0.00,,,0.00,0.0,meteohub,2013-01-21 05:32:00,
2013-01-20 22:37:00,46.6,29.8,30.11,East,79,0.0,1.0,52,0.00,,,0.00,0.0,meteohub,2013-01-21 05:37:00,
2013-01-20 22:42:00,46.6,29.8,30.11,East,79,0.0,1.0,52,0.00,,,0.00,0.0,meteohub,2013-01-21 05:42:00,
2013-01-20 22:47:00,46.2,29.1,30.11,East,79,0.0,1.0,51,0.00,,,0.00,0.0,meteohub,2013-01-21 05:47:00,
2013-01-20 22:52:00,46.0,29.5,30.11,East,79,0.0,1.0,52,0.00,,,0.00,0.0,meteohub,2013-01-21 05:52:00,
2013-01-20 22:57:00,45.9,29.7,30.11,East,79,1.0,1.0,53,0.00,,,0.00,0.0,meteohub,2013-01-21 05:57:00,
2013-01-20 23:02:00,45.7,30.0,30.11,East,79,0.0,1.0,54,0.00,,,0.00,0.0,meteohub,2013-01-21 06:02:00,
2013-01-20 23:07:00,45.5,29.8,30.11,East,79,1.0,1.0,54,0.00,,,0.00,0.0,meteohub,2013-01-21 06:07:00,
2013-01-20 23:12:00,45.5,29.8,30.11,East,79,0.0,1.0,54,0.00,,,0.00,0.0,meteohub,2013-01-21 06:12:00,
2013-01-20 23:17:00,45.7,30.0,30.10,East,79,1.0,1.0,54,0.00,,,0.00,0.0,meteohub,2013-01-21 06:17:00,
2013-01-20 23:22:00,45.7,30.0,30.10,East,79,0.0,1.0,54,0.00,,,0.00,0.0,meteohub,2013-01-21 06:22:00,
2013-01-20 23:27:00,45.7,30.0,30.10,East,79,1.0,1.0,54,0.00,,,0.00,0.0,meteohub,2013-01-21 06:27:00,
2013-01-20 23:32:00,45.7,29.5,30.10,East,79,0.0,1.0,53,0.00,,,0.00,0.0,meteohub,2013-01-21 06:32:00,
2013-01-20 23:37:00,45.7,29.5,30.10,East,79,0.0,1.0,53,0.00,,,0.00,0.0,meteohub,2013-01-21 06:37:00,
2013-01-20 23:42:00,45.7,30.0,30.10,East,79,0.0,1.0,54,0.00,,,0.00,0.0,meteohub,2013-01-21 06:42:00,
2013-01-20 23:48:00,45.7,30.0,30.10,East,79,0.0,1.0,54,0.00,,,0.00,0.0,meteohub,2013-01-21 06:48:00,
2013-01-20 23:53:00,45.7,30.0,30.10,East,79,0.0,1.0,54,0.00,,,0.00,0.0,meteohub,2013-01-21 06:53:00,
2013-01-20 23:58:00,45.7,30.0,30.10,East,79,0.0,1.0,54,0.00,,,0.00,0.0,meteohub,2013-01-21 06:58:00,